Overview Statistics Trail Chart Weather Telemetry Raw packets
 

This is the latest recevied weather packets stored in our database for station/object VE6EN. If no packets are shown the sender has not sent any weather packets the latest 10 day(s).

<< 46 47 48 49 50 51 52 >>
Time Temp. Humidity Pressure Rain* Wind** Luminosity Snow
1787874609 27.22° C 29% 1007.3 hPa 0 mm - - -
1787874312 27.22° C 28% 1007.4 hPa 0 mm - - -
1787872805 27.22° C 30% 1007.8 hPa 0 mm - - -
1787872206 27.22° C 29% 1008 hPa 0 mm - - -
1787871853 27.22° C 30% 1008 hPa 0 mm - - -
1787868004 26.11° C 35% 1009 hPa 0 mm - - -
1787867403 26.11° C 35% 1009 hPa 0 mm - - -
1787866804 26.11° C 33% 1009.1 hPa 0 mm - - -
1787866204 26.67° C 34% 1009.1 hPa 0 mm - - -
1787865603 26.67° C 34% 1009.3 hPa 0 mm - - -
1787865002 26.67° C 36% 1009.5 hPa 0 mm - - -
1787864404 26.11° C 36% 1009.6 hPa 0 mm - - -
1787863803 25.56° C 36% 1009.8 hPa 0 mm - - -
1787863204 25.56° C 36% 1009.9 hPa 0 mm - - -
1787862604 25.56° C 36% 1009.9 hPa 0 mm - - -
1787862003 25.56° C 34% 1010.1 hPa 0 mm - - -
1787861404 25.56° C 35% 1010.2 hPa 0 mm - - -
1787860804 25° C 34% 1010.4 hPa 0 mm - - -
1787860204 24.44° C 38% 1010.6 hPa 0 mm - - -
1787859604 23.89° C 46% 1010.7 hPa 0 mm - - -
1787859006 22.78° C 46% 1010.8 hPa 0 mm - - -
1787858407 22.22° C 48% 1011 hPa 0 mm - - -
1787857803 21.67° C 50% 1011.1 hPa 0 mm - - -
1787857214 21.11° C 48% 1011.1 hPa 0 mm - - -
1787856605 20.56° C 50% 1011.2 hPa 0 mm - - -

* Rain latest hour (hover to see other rain measurements)
** Current wind speed in m/s (hover to see current wind gust speed)